STARLINK-11529, 62599

Orbit data source: Space-Track

STARLINK-11529, 62599 is a payload satellite owned by SpaceX/Seattle (US) in LEO that was launched on Mon, 13 Jan 2025 UTC via an FALCON 9 launch vehicle from the Air Force Eastern Test Range (AFETR). Payload-class satellites include a variety of spacecraft equipped with specific instruments for various scientific and technological missions. These include communications satellites like Starlink; space stations such as the ISS; scientific satellites like the Hubble; Earth observation satellites from companies like Planet Labs, Umbra, and HawkEye 360; GPS; miniature CubeSats for education and research; and military/defense satellites.

Loading next visibility...
Identifier
62599, 2025-008N
Orbit
LEO
Last TLE update
9 hours ago
Origin
Manufacturer
SpaceX/Seattle
Mission
Operational Commercial Communications
Bus & Motor
STARLINK V2M, Unknown motor
Mass
730 kg wet, ~700 kg dry
Launch date (UTC)
2025-01-13 (6 months ago)
Launch vehicle
FALCON 9
Launch site
Air Force Eastern Test Range (AFETR)
Object type
Payload
Rocket body
Debris
Shape & HBR
Box + 2 Pan, 29 m
Radar Cross Section
36.964 m², Large (>1 m²)

Expand to show TLE details & history

TLE from 9 hours ago
0 STARLINK-11529
1 62599U 25008N   25181.76834146  .00249091  00000-0  18759-2 0  9999
2 62599  42.9997 204.6525 0001666 293.2805  66.7888 15.70982089 27668
Epoch: 2025-06-30T18:26Z
TLE epoch observation values (Epoch: 2025-06-30T18:26:24.702Z)
Latitude
0.00005°
Longitude
8.97622°
Altitude
355.418 km
Speed
7.698 km/s
True Right ascension
13h 38m 36s
True Declination
0° 00' 00"
Sunlit
Object was in daylight at epoch
Visualization orbit readout
Latitude
-28.48142°
Longitude
-137.83214°
Altitude
362.649 km
Speed
7.692 km/s
Apparent Right ascension
03h 18m 21s
Apparent Declination
-34° 12' 14"
Sunlit
Object is in daylight
Visualization observer readout
Local Sidereal Time
14:38:19
Azimuth
302.473° NW
Elevation
-80.192°
Doppler factor
1
Orbital elements
Apogee altitude
359.193 km
Perigee altitude
356.948 km
Semi-major axis
6,736.208 km
Eccentricity
0.00017
Inclination
42.9997°
RAAN
204.6525°
Arg. of periapsis
293.2805°
True anomaly
Unknown
Mean anomaly
66.7888°
Eccentric anomaly
Unknown
Mean motion
3.92573 °/min
Orbital period
91.7 mins
BSTAR
0.0018759
Loading maneuver chart data...
Loading SW <> Apogee altitude chart data...
Loading historical data...
Loading historical data...
Loading historical data...
Loading historical data...
Loading historical data...
Loading historical data...
Loading historical data...

STARLINK-11529 Visibility forecast

Observer location: undefined°, undefined°

Span
Click to sort rows by Start time (UTC) header in descending order
Start Az.
Max El. time (UTC)
Max El. Az.
Max El.
End time (UTC)
End Az.
4 mins2025-07-01 05:21:06.057Z224.564° SW2025-07-01 05:23:06.057Z158.712° S35.914°2025-07-01 05:25:06.057Z85.826° E
4 mins2025-07-01 06:58:06.057Z291.081° WNW2025-07-01 06:59:06.057Z339.196° N37.262°2025-07-01 07:02:06.057Z68.907° E
4 mins2025-07-01 08:34:06.057Z302.672° NW2025-07-01 08:35:06.057Z333.535° NNW34.951°2025-07-01 08:38:06.057Z84.863° E
4 mins2025-07-01 10:10:06.057Z269.204° W2025-07-01 10:12:06.057Z174.377° S33.503°2025-07-01 10:14:06.057Z132.681° SE
|